DW4070 Weather Reports


time (UTC)temp
C
wind
direction
speed
KPH
gust
KPH
rain 1hr
cm
rain 24hr
cm
rain mn
cm
humidity
%
barometer
mb
20260510031541 11 280 0.0 0.0 0.00 1.35 1.35 95 1012.8
20260510030041 11 280 0.0 0.0 0.00 1.35 1.35 95 1012.9
20260510024541 11 280 0.0 0.0 0.00 1.35 1.35 95 1013.0
20260510023040 11 280 0.0 0.0 0.00 1.35 1.35 95 1013.0
20260510021540 11 280 0.0 0.0 0.00 1.35 1.35 95 1012.9
20260510020039 11 280 0.0 0.0 0.00 1.35 1.35 94 1012.9
20260510014543 11 280 0.0 0.0 0.00 1.35 1.35 95 1012.8
20260510013039 11 280 0.0 0.0 0.00 1.35 1.35 95 1012.8
20260510011538 11 280 0.0 0.0 0.00 1.35 1.35 95 1012.5
20260510010039 11 280 0.0 0.0 0.03 1.35 1.35 94 1012.3
20260510004637 11 280 0.0 0.0 0.05 1.35 1.35 94 1012.2
20260510003036 12 280 0.0 0.0 0.10 1.35 1.35 94 1012.2
20260510001535 12 280 0.0 0.0 0.13 1.35 1.35 94 1012.2
20260510000038 12 280 0.0 0.0 0.18 1.32 1.32 93 1012.0
20260509234541 12 280 0.0 0.0 0.20 1.30 1.30 94 1012.1
20260509233036 12 280 0.0 0.0 0.23 1.24 1.24 94 1012.2
20260509231533 12 280 0.0 0.0 0.25 1.19 1.19 94 1012.3
20260509230032 12 280 0.0 0.0 0.28 1.14 1.14 94 1012.1
20260509224544 12 280 0.0 3.2 0.25 1.07 1.07 93 1012.3
20260509223030 12 280 0.0 0.0 0.20 0.99 0.99 94 1012.7
20260509221532 12 280 0.0 0.0 0.15 0.94 0.94 94 1012.7
20260509220029 13 280 0.0 0.0 0.13 0.86 0.86 94 1012.9
20260509214529 13 280 0.0 0.0 0.13 0.81 0.81 94 1012.6
20260509213028 13 280 0.0 0.0 0.15 0.79 0.79 93 1012.8
20260509211528 13 280 0.0 0.0 0.20 0.79 0.79 93 1013.1
20260509210028 13 280 0.0 0.0 0.15 0.71 0.71 93 1013.1
20260509204527 13 280 0.0 0.0 0.10 0.66 0.66 93 1013.1
20260509203033 13 280 0.0 1.6 0.10 0.61 0.61 93 1013.2
20260509201526 13 280 0.0 1.6 0.13 0.58 0.58 93 1013.4
20260509200027 13 280 0.0 0.0 0.23 0.58 0.58 93 1012.5
20260509194527 13 280 0.0 0.0 0.33 0.56 0.56 92 1012.5
20260509193024 13 280 0.0 0.0 0.48 0.51 0.51 91 1013.4
20260509191526 13 281 0.0 0.0 0.41 0.43 0.43 91 1013.2
20260509190022 13 280 0.0 0.0 0.33 0.36 0.36 89 1013.4
20260509184539 13 280 0.0 6.4 0.20 0.23 0.23 87 1013.5
20260509183021 15 280 1.6 4.8 0.00 0.03 0.03 81 1013.1
20260509181520 15 280 0.0 3.2 0.00 0.03 0.03 78 1012.5
20260509180022 16 280 0.0 4.8 0.00 0.03 0.03 74 1012.5
20260509174527 17 280 0.0 8.0 0.00 0.03 0.03 68 1012.4
20260509173019 17 280 3.2 8.0 0.00 0.03 0.03 64 1012.3
20260509171517 17 280 3.2 8.0 0.00 0.03 0.03 64 1012.5
20260509170024 17 262 0.0 8.0 0.00 0.03 0.03 67 1012.6
20260509164511 17 281 0.0 4.8 0.00 0.03 0.03 68 1012.9
20260509163008 16 281 1.6 8.0 0.00 0.03 0.03 69 1013.3
20260509161504 16 286 0.0 4.8 0.00 0.03 0.03 72 1013.8
20260509160001 16 21 0.0 3.2 0.00 0.03 0.03 71 1013.7
20260509154612 15 284 0.0 4.8 0.00 0.03 0.03 72 1013.9
20260509153108 15 284 0.0 6.4 0.00 0.03 0.03 73 1013.9
20260509151607 15 286 0.0 4.8 0.00 0.03 0.03 74 1014.0
20260509150053 15 286 0.0 1.6 0.00 0.03 0.03 78 1014.0
20260509144551 14 285 0.0 3.2 0.00 0.03 0.03 77 1014.2
20260509143057 13 286 0.0 4.8 0.00 0.03 0.03 81 1014.1
20260509141547 13 286 0.0 3.2 0.00 0.03 0.03 84 1014.3
20260509140041 12 286 1.6 6.4 0.00 0.03 0.03 84 1014.1
20260509134540 12 286 0.0 6.4 0.00 0.03 0.03 87 1014.0
20260509133051 11 286 0.0 3.2 0.00 0.03 0.03 90 1014.4
20260509131533 11 286 0.0 1.6 0.03 0.03 0.03 91 1014.4
20260509130031 11 286 0.0 0.0 0.03 0.03 0.03 92 1014.4
20260509124529 10 286 0.0 0.0 0.03 0.03 0.03 93 1014.6
20260509123032 10 286 0.0 1.6 0.03 0.03 0.03 93 1014.7
20260509121530 10 323 0.0 0.0 0.00 0.00 0.00 93 1015.0
20260509120025 10 320 0.0 0.0 0.00 0.00 0.00 93 1015.1
20260509114528 10 321 0.0 0.0 0.00 0.00 0.00 93 1014.9
20260509113022 10 315 0.0 0.0 0.00 0.00 0.00 94 1015.0
20260509111520 9 317 0.0 0.0 0.00 0.00 0.00 94 1014.8
20260509110018 9 287 0.0 0.0 0.00 0.00 0.00 94 1014.9
20260509104518 9 286 0.0 0.0 0.00 0.00 0.00 94 1014.7
20260509103016 9 166 0.0 0.0 0.00 0.00 0.00 94 1014.4
20260509101526 9 166 0.0 0.0 0.00 0.00 0.00 94 1014.3
20260509100015 9 166 0.0 0.0 0.00 0.00 0.00 94 1014.4
20260509094515 8 166 0.0 0.0 0.00 0.00 0.00 94 1014.4
20260509093012 8 166 0.0 0.0 0.00 0.00 0.00 93 1014.3
20260509091511 8 166 0.0 0.0 0.00 0.00 0.00 93 1014.4
20260509090012 8 166 0.0 0.0 0.00 0.00 0.00 93 1014.5
20260509084510 8 166 0.0 0.0 0.00 0.00 0.00 93 1014.5
20260509083009 8 166 0.0 0.0 0.00 0.00 0.00 93 1014.5
20260509081518 8 166 0.0 0.0 0.00 0.00 0.00 93 1014.6
20260509080008 8 166 0.0 0.0 0.00 0.03 0.00 93 1014.6
20260509074507 8 166 0.0 0.0 0.00 0.03 0.00 93 1014.5
20260509073015 8 166 0.0 0.0 0.00 0.03 0.00 92 1014.4
20260509071505 8 166 0.0 0.0 0.00 0.03 0.00 92 1014.4
20260509070009 8 166 0.0 0.0 0.00 0.03 0.00 92 1014.4
20260509064503 8 166 0.0 0.0 0.00 0.03 0.00 92 1014.5
20260509063112 8 166 0.0 0.0 0.00 0.03 0.00 91 1014.5
20260509061618 8 166 0.0 0.0 0.00 0.03 0.00 91 1014.7
20260509060112 8 166 0.0 0.0 0.00 0.03 0.00 90 1015.0
20260509054557 8 166 0.0 0.0 0.00 0.03 0.00 90 1014.9
20260509053056 8 166 0.0 0.0 0.00 0.03 0.00 90 1015.0
20260509051559 8 166 0.0 0.0 0.00 0.03 0.00 89 1015.0
20260509050053 8 166 0.0 0.0 0.00 0.03 0.00 88 1014.9
20260509044551 8 166 0.0 0.0 0.00 0.03 0.00 87 1014.9
20260509043051 8 166 0.0 0.0 0.00 0.03 0.00 86 1015.0
20260509041546 8 166 0.0 0.0 0.00 0.03 0.00 85 1015.0
20260509040044 8 166 0.0 0.0 0.00 0.03 0.00 85 1015.2
20260509034543 9 166 0.0 0.0 0.00 0.03 0.03 84 1015.2
20260509033042 9 166 0.0 0.0 0.00 0.03 0.03 84 1015.1